This demonstration page uses our WeatherBlox Daily Observations layout. Learn more.

Left ArrowRight Arrow

39.95238, -75.16362

Hourly Observations for May 24, 2016

Temp ( °F °C ) Dew Point ( °F °C ) Humidity (%) Winds ( mph kmh ) Pressure ( in mb ) Visibility ( mi km ) Precip ( " mm )
12:54 am 00:54 Cloudy 60 15.6 51 10.6 72 72 SSW 6 9 29.93 1014 10 16 0.00 0.00
1:54 am 01:54 Cloudy 58 14.4 52 11.1 81 81 ESE 6 9 29.92 1013 10 16 0.00 0.00
2:54 am 02:54 Cloudy with Light Rain 59 15 54 12.2 83 83 SW 14 22 29.89 1012 10 16 0.03 0.76
3:54 am 03:54 Cloudy 58 14.4 54 12.2 87 87 WSW 9 15 29.88 1012 10 16 0.00 0.03
4:54 am 04:54 Cloudy 58 14.4 54 12.2 87 87 ENE 5 7 29.89 1012 10 16 0.00 0.00
5:54 am 05:54 Mostly Cloudy 56 13.3 53 11.7 90 90 E 3 6 29.91 1013 10 16 0.00 0.00
6:54 am 06:54 Mostly Cloudy 59 15 56 13.3 90 90 Calm 29.92 1013 10 16 0.00 0.00
7:54 am 07:54 Mostly Cloudy 61 16.1 54 12.2 78 78 NW 5 7 29.93 1014 10 16 0.00 0.00
8:54 am 08:54 Mostly Cloudy 63 17.2 55 12.8 76 76 W 5 7 29.94 1014 10 16 0.00 0.00
9:54 am 09:54 Mostly Cloudy 68 20 56 13.3 65 65 VRB 5 7 29.95 1014 10 16 0.00 0.00
10:54 am 10:54 Mostly Cloudy 70 21.1 55 12.8 59 59 S 7 11 29.96 1015 10 16 0.00 0.00
11:54 am 11:54 Mostly Cloudy 72 22.2 52 11.1 50 50 S 8 13 29.96 1015 10 16 0.00 0.00
12:54 pm 12:54 Mostly Cloudy 76 24.4 52 11.1 43 43 WSW 16 26 29.95 1014 10 16 0.00 0.00
1:54 pm 13:54 Mostly Cloudy 77 25 50 10 39 39 WSW 16 26 29.93 1014 10 16 0.00 0.00
2:54 pm 14:54 Mostly Cloudy 78 25.6 49 9.4 36 36 SW 12 19 29.91 1013 10 16 0.00 0.00
3:54 pm 15:54 Mostly Cloudy 80 26.7 46 7.8 30 30 W 18 30 29.90 1013 10 16 0.00 0.00
4:03 pm 16:03 Mostly Cloudy 82 27.8 44 6.7 26 26 NW 16 26 29.91 1013 10 16 0.00 0.00
4:54 pm 16:54 Partly Cloudy 83 28.3 41 5 23 23 W 18 30 29.90 1013 10 16 0.00 0.00
5:54 pm 17:54 Mostly Cloudy 82 27.8 41 5 23 23 W 13 20 29.91 1013 10 16 0.00 0.00
6:54 pm 18:54 Mostly Cloudy 81 27.2 43 6.1 26 26 W 14 22 29.92 1013 10 16 0.00 0.00
7:54 pm 19:54 Mostly Cloudy 81 27.2 44 6.7 27 27 W 12 19 29.93 1013 10 16 0.00 0.00
8:54 pm 20:54 Mostly Cloudy 78 25.6 47 8.3 33 33 W 9 15 29.94 1014 10 16 0.00 0.00
9:54 pm 21:54 Partly Cloudy 76 24.4 47 8.3 36 36 W 9 15 29.96 1015 10 16 0.00 0.00
10:54 pm 22:54 Clear 73 22.8 47 8.3 40 40 N 5 7 29.98 1015 10 16 0.00 0.00
11:54 pm 23:54 Clear 65 18.3 54 12.2 68 68 ENE 5 7 30.01 1016 10 16 0.00 0.00

Powered by AerisWeather